GORIZONT 1 [-]

Last updated on Oct. 26, 2020, 5:52 a.m. UTC

1 11158U 78118A   20299.16483330 -.00000232  00000-0  00000-0 0  9999
2 11158  11.8449 229.7235 3581343 248.0627  70.6598  1.00265988102277
UTC
Height (km)
Latitude
Longitude
Inclination
Orbital Period
UTC large
Height (km)
Speed (km/s)
/
Latitude / Longitude
Inclination (degrees)
Orbital Period (minutes)
Azimuth
Elevation
Range (km)
Doppler Factor
iOS Compass Heading
iOS Angle

Next 30 passes for location: Hong Kong

Rise time Rise Azimuth (degrees) Set time Set Azimuth (degrees) Duration Max altitude (degrees)

No matching passes for this satellites